DW5212 Weather Reports


time (UTC)temp
F
wind
direction
speed
knots
gust
knots
rain 1hr
in
rain 24hr
in
rain mn
in
humidity
%
barometer
mb
20260903213503 91 87 0.0 0.0 0.00 0.00 0.00 59 1012.8
20260903213004 91 87 0.0 1.7 0.00 0.00 0.00 59 1012.9
20260903212004 92 101 0.9 2.6 0.00 0.00 0.00 60 1013.1
20260903211004 93 86 0.9 2.6 0.00 0.00 0.00 58 1013.4
20260903210503 93 200 0.0 2.6 0.00 0.00 0.00 58 1013.5
20260903210009 95 245 0.0 2.6 0.00 0.00 0.00 56 1013.6
20260903205503 95 190 0.9 3.5 0.00 0.00 0.00 54 1013.6
20260903205003 96 190 1.7 6.1 0.00 0.00 0.00 51 1013.7
20260903204504 96 112 1.7 4.3 0.00 0.00 0.00 50 1013.8
20260903204004 96 193 1.7 4.3 0.00 0.00 0.00 52 1013.8
20260903203008 96 115 1.7 4.3 0.00 0.00 0.00 51 1013.8
20260903202503 96 140 1.7 4.3 0.00 0.00 0.00 52 1013.8
20260903202004 96 273 1.7 4.3 0.00 0.00 0.00 52 1013.7
20260903201503 96 103 0.9 5.2 0.00 0.00 0.00 52 1013.7
20260903201004 96 34 0.9 2.6 0.00 0.00 0.00 52 1013.7
20260903200504 95 113 0.9 5.2 0.00 0.00 0.00 54 1013.8
20260903200005 95 225 2.6 7.0 0.00 0.00 0.00 52 1013.9
20260903195503 95 230 1.7 7.0 0.00 0.00 0.00 55 1014.0
20260903195004 94 321 0.9 2.6 0.00 0.00 0.00 55 1014.0
20260903194503 94 52 0.0 2.6 0.00 0.00 0.00 58 1014.1
20260903193505 95 27 0.0 2.6 0.00 0.00 0.00 55 1014.1
20260903193008 95 33 0.0 0.9 0.00 0.00 0.00 56 1014.3
20260903192503 95 33 0.0 1.7 0.00 0.00 0.00 56 1014.3
20260903192004 95 44 0.0 1.7 0.00 0.00 0.00 56 1014.3
20260903191504 94 82 0.0 0.0 0.00 0.00 0.00 58 1014.4
20260903191004 95 110 0.9 2.6 0.00 0.00 0.00 59 1014.5
20260903190503 95 117 0.9 4.3 0.00 0.00 0.00 57 1014.6
20260903190007 95 234 0.9 4.3 0.00 0.00 0.00 57 1014.6
20260903185503 94 273 0.9 3.5 0.00 0.06 0.00 58 1014.9
20260903184503 93 192 0.0 3.5 0.00 0.06 0.00 58 1014.9
20260903184005 93 70 0.0 0.0 0.00 0.06 0.00 61 1014.9
20260903183503 93 132 0.0 0.9 0.00 0.06 0.00 60 1014.7
20260903183006 92 90 0.9 1.7 0.00 0.06 0.00 60 1014.7
20260903182504 92 346 0.9 1.7 0.00 0.06 0.00 59 1014.9
20260903182004 92 38 0.0 2.6 0.00 0.06 0.00 62 1014.9
20260903181504 92 39 0.9 3.5 0.00 0.06 0.00 61 1015.1
20260903181003 93 92 0.9 3.5 0.00 0.06 0.00 59 1015.2
20260903180502 93 351 0.9 2.6 0.00 0.06 0.00 58 1015.2
20260903175006 92 94 0.0 1.7 0.00 0.45 0.00 62 1015.5
20260903174503 92 224 0.0 1.7 0.00 0.45 0.00 62 1015.4
20260903174003 93 223 0.0 1.7 0.00 0.45 0.00 60 1015.5
20260903173503 93 223 0.9 2.6 0.00 0.45 0.00 61 1015.6
20260903173007 93 223 0.9 2.6 0.00 0.45 0.00 58 1015.6
20260903172504 94 244 0.9 3.5 0.00 0.45 0.00 58 1015.6
20260903171505 94 120 1.7 3.5 0.00 0.45 0.00 58 1015.7
20260903171004 93 104 1.7 2.6 0.00 0.45 0.00 58 1015.7
20260903170503 93 140 1.7 2.6 0.00 0.45 0.00 59 1015.8
20260903170004 93 38 1.7 3.5 0.00 0.45 0.00 58 1015.9
20260903165504 93 111 0.9 3.5 0.00 0.45 0.00 62 1015.9
20260903164503 92 297 0.9 2.6 0.00 0.45 0.00 63 1016.1
20260903164004 92 210 0.9 2.6 0.00 0.45 0.00 64 1016.0
20260903163503 91 123 0.9 2.6 0.00 0.45 0.00 65 1016.0
20260903163004 91 154 0.9 2.6 0.00 0.45 0.00 67 1016.0
20260903162504 90 180 0.9 2.6 0.00 0.45 0.00 66 1016.1
20260903162004 90 132 0.9 2.6 0.00 0.45 0.00 67 1016.1
20260903161503 90 132 0.9 3.5 0.00 0.45 0.00 67 1016.1
20260903160503 90 211 0.9 3.5 0.00 0.45 0.00 68 1016.1
20260903155502 89 254 0.9 2.6 0.00 0.45 0.00 70 1016.2
20260903155003 89 140 0.9 3.5 0.00 0.45 0.00 68 1016.2
20260903154503 89 181 0.9 4.3 0.00 0.45 0.00 72 1016.2
20260903154003 88 203 0.9 4.3 0.00 0.45 0.00 72 1016.1
20260903153503 88 205 0.9 3.5 0.00 0.45 0.00 74 1016.3
20260903153007 87 163 0.9 3.5 0.00 0.45 0.00 77 1016.2
20260903152503 87 136 0.9 2.6 0.00 0.45 0.00 79 1016.3
20260903152004 86 146 0.0 2.6 0.00 0.45 0.00 81 1016.1
20260903145003 82 212 0.0 0.0 0.00 0.45 0.00 92 1016.1
20260903144503 82 229 0.0 0.9 0.00 0.45 0.00 93 1016.2
20260903144003 82 228 0.9 3.5 0.00 0.45 0.00 94 1016.2
20260903143503 81 223 0.0 3.5 0.00 0.45 0.00 95 1016.2
20260903143005 80 232 0.0 0.0 0.00 0.45 0.00 96 1016.1
20260903142503 80 217 0.0 0.0 0.00 0.45 0.00 96 1016.1
20260903142004 79 216 0.0 0.0 0.00 0.45 0.00 97 1016.1
20260903141503 78 217 0.0 0.0 0.00 0.45 0.00 97 1016.1
20260903141003 78 216 0.0 0.0 0.00 0.45 0.00 97 1016.1
20260903140502 77 213 0.0 0.0 0.00 0.45 0.00 97 1016.1
20260903140004 77 213 0.0 0.0 0.00 0.45 0.00 97 1016.2
20260903135502 77 213 0.0 0.0 0.00 0.45 0.00 97 1016.2
20260903135004 77 213 0.0 0.0 0.00 0.45 0.00 97 1016.3
20260903134503 76 213 0.0 1.7 0.00 0.45 0.00 97 1016.4
20260903134003 76 213 0.0 1.7 0.00 0.45 0.00 97 1016.4
20260903133502 76 213 0.0 0.9 0.00 0.45 0.00 97 1016.5
20260903133004 76 217 0.0 0.0 0.00 0.45 0.00 97 1016.5
20260903132503 75 217 0.0 0.0 0.00 0.45 0.00 96 1016.4
20260903132004 75 218 0.0 0.0 0.00 0.45 0.00 96 1016.3
20260903131503 75 217 0.0 0.0 0.00 0.45 0.00 97 1016.4
20260903131003 75 218 0.0 0.0 0.00 0.45 0.00 97 1016.4
20260903130003 75 218 0.0 0.0 0.00 0.45 0.00 96 1016.3
20260903125502 74 217 0.0 0.0 0.00 0.45 0.00 96 1016.2
20260903125003 74 286 0.0 0.9 0.00 0.45 0.00 96 1016.1
20260903124003 74 74 0.0 0.0 0.00 0.45 0.00 96 1016.2
20260903123502 74 74 0.0 0.0 0.00 0.45 0.00 96 1016.1
20260903123004 74 74 0.0 0.9 0.00 0.45 0.00 96 1016.1
20260903122502 74 74 0.0 1.7 0.00 0.45 0.00 96 1016.1
20260903122003 74 74 0.0 1.7 0.00 0.45 0.00 96 1016.0
20260903121503 73 79 0.0 0.0 0.00 0.45 0.00 96 1016.0
20260903121004 73 79 0.0 0.0 0.00 0.45 0.00 96 1015.9
20260903120501 73 79 0.0 0.0 0.00 0.45 0.00 96 1015.9
20260903120003 73 79 0.0 0.0 0.00 0.45 0.00 96 1015.9
20260903115502 73 79 0.0 0.0 0.00 0.45 0.00 96 1015.9
20260903115003 73 79 0.0 0.0 0.00 0.45 0.00 96 1015.9
20260903114503 73 79 0.0 0.0 0.00 0.45 0.00 96 1015.9
20260903114003 73 80 0.0 0.0 0.00 0.45 0.00 96 1015.9
20260903113004 73 79 0.0 0.0 0.00 0.45 0.00 96 1015.9
20260903112502 73 79 0.0 0.0 0.00 0.45 0.00 96 1015.8
20260903112003 73 79 0.0 0.0 0.00 0.45 0.00 95 1015.8
20260903111503 73 80 0.0 0.0 0.00 0.45 0.00 95 1015.6
20260903111003 73 79 0.0 0.0 0.00 0.45 0.00 95 1015.7
20260903110500 73 79 0.0 0.0 0.00 0.45 0.00 95 1015.6
20260903110006 73 79 0.0 0.0 0.00 0.45 0.00 95 1015.7
20260903105004 73 79 0.0 0.0 0.00 0.45 0.00 95 1015.6
20260903104005 73 79 0.0 0.0 0.00 0.45 0.00 95 1015.4
20260903103503 73 79 0.0 0.0 0.00 0.45 0.00 95 1015.4
20260903102503 74 79 0.0 0.0 0.00 0.45 0.00 95 1015.3
20260903102004 74 79 0.0 0.0 0.00 0.45 0.00 95 1015.2
20260903101503 74 79 0.0 0.0 0.00 0.45 0.00 95 1015.3
20260903101005 74 79 0.0 0.0 0.00 0.45 0.00 95 1015.2
20260903100503 74 79 0.0 0.0 0.00 0.45 0.00 95 1015.2
20260903100007 74 79 0.0 0.0 0.00 0.45 0.00 95 1015.1
20260903095003 74 79 0.0 0.0 0.00 0.45 0.00 95 1015.0
20260903094503 74 79 0.0 0.0 0.00 0.45 0.00 95 1015.0
20260903094003 74 79 0.0 0.0 0.00 0.45 0.00 95 1015.0
20260903093501 74 79 0.0 0.0 0.00 0.45 0.00 95 1015.0
20260903093003 74 80 0.0 0.0 0.00 0.45 0.00 95 1015.0
20260903092503 74 79 0.0 0.0 0.00 0.45 0.00 95 1015.0
20260903092003 74 79 0.0 0.0 0.00 0.45 0.00 95 1015.1
20260903091502 74 79 0.0 0.0 0.00 0.45 0.00 95 1015.3
20260903091003 74 79 0.0 0.0 0.00 0.45 0.00 95 1015.3
20260903090502 74 79 0.0 0.0 0.00 0.45 0.00 95 1015.3
20260903090005 74 79 0.0 0.0 0.00 0.45 0.00 95 1015.2
20260903085501 74 79 0.0 0.0 0.00 0.45 0.00 95 1015.2
20260903085003 74 79 0.0 0.0 0.00 0.45 0.00 95 1015.2
20260903084503 74 79 0.0 0.0 0.00 0.45 0.00 95 1015.1
20260903084002 75 79 0.0 0.0 0.00 0.45 0.00 95 1015.0
20260903083502 75 79 0.0 0.0 0.00 0.45 0.00 95 1015.0
20260903083005 75 79 0.0 0.0 0.00 0.45 0.00 95 1015.1
20260903082503 75 79 0.0 0.0 0.00 0.45 0.00 95 1015.1
20260903082004 75 79 0.0 0.0 0.00 0.45 0.00 95 1015.0
20260903081503 75 79 0.0 0.0 0.00 0.45 0.00 95 1015.0
20260903081003 75 79 0.0 0.0 0.00 0.45 0.00 95 1015.0
20260903080502 75 79 0.0 0.0 0.00 0.45 0.00 95 1014.9
20260903080004 75 79 0.0 0.0 0.00 0.45 0.00 95 1014.8
20260903075502 75 79 0.0 0.0 0.00 0.45 0.00 95 1014.9
20260903074503 75 79 0.0 0.0 0.00 0.45 0.00 95 1014.9
20260903074002 75 79 0.0 0.0 0.00 0.45 0.00 95 1014.9
20260903073502 75 79 0.0 0.0 0.00 0.45 0.00 95 1014.9
20260903073003 75 79 0.0 0.0 0.00 0.45 0.00 95 1014.9
20260903072503 75 79 0.0 0.0 0.00 0.45 0.00 95 1014.9
20260903072003 75 79 0.0 0.0 0.00 0.45 0.00 95 1014.9
20260903071503 75 79 0.0 0.0 0.00 0.45 0.00 95 1015.0
20260903070502 75 79 0.0 0.0 0.00 0.45 0.00 95 1015.0
20260903065503 75 85 0.0 0.0 0.00 0.45 0.00 95 1015.0
20260903065002 75 86 0.0 0.0 0.00 0.45 0.00 95 1015.2
20260903064503 75 192 0.0 0.0 0.00 0.45 0.00 95 1015.2
20260903064003 75 192 0.0 0.0 0.00 0.45 0.00 95 1015.1
20260903063004 75 192 0.0 0.0 0.00 0.45 0.00 95 1015.3
20260903062003 75 192 0.0 0.0 0.00 0.45 0.00 95 1015.2
20260903061503 75 192 0.0 0.0 0.00 0.45 0.00 95 1015.3
20260903061003 75 192 0.0 0.0 0.00 0.45 0.00 95 1015.4
20260903060502 75 192 0.0 0.0 0.00 0.45 0.00 95 1015.6
20260903060006 75 192 0.0 0.0 0.00 0.45 0.00 95 1015.6
20260903055503 75 188 0.0 0.0 0.00 0.45 0.00 95 1015.5
20260903055004 75 188 0.0 0.0 0.00 0.45 0.00 95 1015.6
20260903054005 75 188 0.0 0.0 0.00 0.45 0.00 95 1015.5
20260903053503 75 188 0.0 0.0 0.00 0.45 0.00 95 1015.5
20260903053004 75 188 0.0 0.0 0.00 0.45 0.00 95 1015.5
20260903052004 75 188 0.0 0.0 0.00 0.45 0.00 95 1015.5
20260903051503 75 188 0.0 0.0 0.00 0.45 0.00 95 1015.5
20260903050503 75 188 0.0 0.0 0.00 0.45 0.00 95 1015.5
20260903045503 75 211 0.0 0.0 0.00 0.45 0.45 95 1015.5
20260903045005 75 211 0.0 0.0 0.00 0.45 0.45 95 1015.7
20260903044504 75 211 0.0 0.0 0.00 0.45 0.45 95 1015.6
20260903044004 75 211 0.0 0.0 0.00 0.45 0.45 95 1015.8
20260903043503 75 211 0.0 0.0 0.00 0.45 0.45 95 1015.7
20260903043005 75 211 0.0 0.0 0.00 0.45 0.45 95 1015.7
20260903042503 75 211 0.0 0.0 0.00 0.45 0.45 95 1015.8
20260903042004 76 212 0.0 0.0 0.00 0.45 0.45 94 1015.7
20260903041505 76 211 0.0 0.0 0.00 0.45 0.45 94 1015.8
20260903041004 76 211 0.0 0.0 0.00 0.45 0.45 94 1015.8
20260903040503 76 211 0.0 0.0 0.00 0.45 0.45 94 1015.9
20260903040008 76 211 0.0 0.0 0.00 0.45 0.45 94 1015.9
20260903035503 76 211 0.0 0.0 0.00 0.45 0.45 94 1016.0
20260903035004 76 212 0.0 0.0 0.00 0.45 0.45 94 1015.9
20260903034503 76 211 0.0 0.0 0.00 0.45 0.45 94 1016.0
20260903033504 76 211 0.0 0.0 0.00 0.45 0.45 94 1015.9
20260903033004 76 212 0.0 0.0 0.00 0.45 0.45 94 1015.8
20260903032503 76 211 0.0 0.0 0.00 0.45 0.45 94 1015.8
20260903032004 76 211 0.0 0.0 0.00 0.45 0.45 94 1016.1
20260903031504 76 212 0.0 0.0 0.00 0.45 0.45 94 1016.1
20260903030503 77 211 0.0 0.0 0.00 0.45 0.45 93 1015.8
20260903025502 77 211 0.0 0.0 0.00 0.45 0.45 94 1015.6
20260903025005 77 211 0.0 0.0 0.00 0.45 0.45 94 1015.6
20260903024504 77 211 0.0 0.0 0.00 0.45 0.45 94 1015.5
20260903024003 77 211 0.0 0.0 0.00 0.45 0.45 94 1015.4
20260903023503 77 211 0.0 0.0 0.00 0.45 0.45 94 1015.2
20260903022504 77 212 0.0 0.0 0.00 0.45 0.45 94 1015.2
20260903022004 77 211 0.0 0.0 0.00 0.45 0.45 93 1015.1
20260903021506 77 211 0.0 0.0 0.00 0.45 0.45 93 1015.0
20260903021003 77 211 0.0 0.0 0.00 0.45 0.45 94 1015.0
20260903020502 77 211 0.0 0.0 0.00 0.45 0.45 94 1014.8
20260903020007 77 211 0.0 0.0 0.00 0.45 0.45 94 1014.8
20260903015003 78 211 0.0 0.0 0.00 0.45 0.45 93 1014.7
20260903014503 78 211 0.0 0.0 0.00 0.45 0.45 93 1014.6
20260903014004 78 211 0.0 0.0 0.00 0.45 0.45 93 1014.5
20260903013506 78 211 0.0 0.0 0.00 0.45 0.45 93 1014.8
20260903013006 78 211 0.0 0.0 0.00 0.45 0.45 93 1014.9
20260903012003 78 211 0.0 0.0 0.00 0.45 0.45 92 1015.0
20260903011505 78 211 0.0 0.0 0.00 0.45 0.45 92 1015.0
20260903011004 79 212 0.0 0.0 0.00 0.45 0.45 92 1014.9
20260903010006 79 212 0.0 0.0 0.00 0.45 0.45 92 1015.2
20260903005004 79 211 0.0 0.0 0.00 0.45 0.45 91 1015.2
20260903004503 79 211 0.0 0.0 0.00 0.45 0.45 91 1015.1
20260903004003 79 212 0.0 0.0 0.00 0.45 0.45 91 1015.0
20260903003004 80 211 0.0 0.0 0.00 0.45 0.45 90 1015.0
20260903002503 80 211 0.0 0.0 0.00 0.45 0.45 90 1014.9
20260903001503 80 211 0.0 0.0 0.00 0.45 0.45 90 1014.9
20260903001004 80 212 0.0 0.0 0.00 0.45 0.45 90 1015.0
20260903000503 80 211 0.0 0.0 0.00 0.45 0.45 90 1015.0
20260902235503 80 211 0.0 0.0 0.00 0.45 0.45 89 1014.9
20260902235004 81 212 0.0 0.0 0.00 0.45 0.45 90 1014.9
20260902234503 81 212 0.0 0.0 0.00 0.45 0.45 90 1014.9
20260902234004 81 211 0.0 0.0 0.00 0.45 0.45 89 1015.1
20260902233503 81 211 0.0 0.0 0.00 0.45 0.45 90 1015.1
20260902231504 81 168 0.0 0.0 0.00 0.45 0.45 89 1014.8
20260902231004 81 167 0.0 0.0 0.00 0.45 0.45 88 1014.5
20260902230502 81 257 0.0 0.0 0.00 0.45 0.45 90 1014.7
20260902230007 81 257 0.0 0.0 0.00 0.45 0.45 89 1014.6
20260902225503 81 257 0.0 0.9 0.00 0.45 0.45 89 1014.6
20260902225004 81 257 0.0 1.7 0.00 0.45 0.45 89 1014.7
20260902224504 81 257 0.0 1.7 0.00 0.45 0.45 88 1014.6
20260902224008 81 211 0.0 0.0 0.00 0.45 0.45 88 1014.7
20260902223004 81 217 0.0 1.7 0.00 0.45 0.45 88 1014.8
20260902221504 81 175 0.0 4.3 0.00 0.45 0.45 89 1014.9
20260902221004 81 247 0.0 0.9 0.00 0.45 0.45 90 1014.9
20260902220006 81 247 0.0 0.9 0.00 0.45 0.45 90 1015.0
20260902215503 81 248 0.0 2.6 0.00 0.45 0.45 89 1015.1
20260902215004 81 222 0.0 0.0 0.00 0.45 0.45 89 1015.1
20260902214004 81 240 0.0 0.0 0.00 0.45 0.45 90 1015.1